Location: Cosy Dell
(34.2789°N, 117.4537°W)
Time: 21:18:12
(UTC+00:00)

Cosmos 1782 Rocket - Pass Details

Date: 14 July 2020
Orbit: 606 x 633 km, 82.5° (Epoch: 13 August)

Event Time Altitude Azimuth Distance (km) Brightness Sun altitude
Exits shadow 10:58:58 25° 170° (S) 1,260 4.8 -19.2°
Maximum altitude 11:01:26 66° 94° (E) 687 3.9 -18.8°
Drops below altitude 10° 11:05:50 10° 13° (NNE) 2,002 7.0 -18.2°
Sets 11:08:04 0° 10° (N) 2,908 7.9 -17.8°
